Change the Weather History Date:

Thursday, September 12, 2013

  Actual Average Record
Temperature  
Mean Temperature 33 °F -  
Max Temperature 44 °F 53 °F 64 °F (2004)
Min Temperature 22 °F 32 °F 8 °F (2000)
Degree Days  
Heating Degree Days 32    
Moisture  
Dew Point 23 °F    
Average Humidity 67    
Maximum Humidity 86    
Minimum Humidity 33    
Precipitation  
Precipitation 0.00 in 0.07 in - ()
Sea Level Pressure  
Sea Level Pressure 30.17 in    
Wind  
Wind Speed 4 mph ()    
Max Wind Speed 23 mph    
Max Gust Speed -    
Visibility 6.1 miles    
Events      
Averages and records for this station are not official NWS values.
T = Trace of Precipitation, MM = Missing Value Source: Averaged Metar Reports

Daily Weather History Graph

Daily Weather History Graph

Search for Another Location

Airport or City:

Trip Planner

Search our weather history database for the weather conditions in past years. The results will help you decide how hot, cold, wet, or windy it might be!

Date:

Astronomy

Sep. 12, 2013 Rise Set
Actual Time 7:50 AM ART 7:31 PM ART
Civil Twilight 7:23 AM ART 7:59 PM ART
Nautical Twilight 6:51 AM ART 8:31 PM ART
Astronomical Twilight 6:19 AM ART 9:03 PM ART
Moon 12:19 PM ART (9/12) 2:18 AM ART (9/12)
Length of Visible Light 12h 36m
Length of Day
11h 41m
Waxing Crescent, 49% of the Moon is Illuminated
Sep 12
Waxing Crescent
Sep 12
First Quarter
Sep 19
Full
Sep 27
Last Quarter
Oct 4
New

Hourly Weather History & Observations

Time (ART) Temp. Windchill Dew Point Humidity Pressure Visibility Wind Dir Wind Speed Gust Speed Precip Events Conditions
12:00 AM 32.0 °F - 23.0 °F 69% 30.12 in 6.2 mi Calm Calm - N/A   Mostly Cloudy
1:00 AM 30.2 °F - 24.8 °F 80% 30.12 in 6.2 mi Calm Calm - N/A   Mostly Cloudy
2:00 AM 28.4 °F - 23.0 °F 80% 30.12 in 6.2 mi Calm Calm - N/A   Mostly Cloudy
3:00 AM 28.4 °F - 23.0 °F 80% 30.12 in 6.2 mi Calm Calm - N/A   Mostly Cloudy
4:00 AM 28.4 °F - 23.0 °F 80% 30.12 in 6.2 mi Calm Calm - N/A   Mostly Cloudy
5:00 AM 26.6 °F - 21.2 °F 80% 30.12 in 6.2 mi Calm Calm - N/A   Scattered Clouds
6:00 AM 24.8 °F 20.5 °F 19.4 °F 80% 30.12 in 6.2 mi South 3.5 mph - N/A   Scattered Clouds
7:00 AM 23.0 °F - 19.4 °F 86% 30.15 in 6.2 mi Calm Calm - N/A   Scattered Clouds
8:00 AM 23.0 °F 18.4 °F 19.4 °F 86% 30.15 in 6.2 mi Variable 3.5 mph - N/A   Partly Cloudy
9:00 AM 27 °F - 21 °F 69%  in 6 mi Calm Calm - -   Partly Cloudy
9:00 AM 26.6 °F - 21.2 °F 80% 30.18 in 6.2 mi Calm Calm - N/A   Scattered Clouds
10:00 AM 30.2 °F - 21.2 °F 69% 30.18 in 6.2 mi Calm Calm - N/A   Scattered Clouds
11:00 AM 33.8 °F 26.4 °F 24.8 °F 70% 30.18 in 6.2 mi WNW 9.2 mph - N/A   Scattered Clouds
12:00 PM 37.4 °F 29.8 °F 26.6 °F 65% 30.18 in 6.2 mi WNW 11.5 mph - N/A   Scattered Clouds
1:00 PM 39.2 °F 30.5 °F 24.8 °F 56% 30.18 in 6.2 mi WNW 16.1 mph - N/A   Scattered Clouds
2:00 PM 39.2 °F 29.8 °F 24.8 °F 56% 30.18 in 6.2 mi WNW 18.4 mph - N/A   Scattered Clouds
3:00 PM 42 °F - 22 °F 33%  in 6 mi NW 15.0 mph - -   Mostly Cloudy
3:00 PM 42.8 °F 35.4 °F 23.0 °F 46% 30.18 in 5.6 mi NW 15.0 mph - N/A   Partly Cloudy
4:00 PM 44.6 °F 37.4 °F 23.0 °F 43% 30.18 in 5.6 mi NW 16.1 mph - N/A   Scattered Clouds
5:00 PM 42.8 °F 35.1 °F 21.2 °F 42% 30.18 in 6.2 mi NW 16.1 mph - N/A   Scattered Clouds
6:00 PM 41.0 °F 31.1 °F 24.8 °F 53% 30.21 in 6.2 mi WNW 23.0 mph - N/A   Scattered Clouds
7:00 PM 39.2 °F 31.6 °F 23.0 °F 52% 30.21 in 6.2 mi NW 12.7 mph - N/A   Scattered Clouds
8:00 PM 37.4 °F 29.3 °F 24.8 °F 60% 30.24 in 6.2 mi WNW 12.7 mph - N/A   Partly Cloudy
10:00 PM 30.2 °F - 24.8 °F 80% 30.30 in - Calm Calm - N/A   Clear
11:00 PM 30.2 °F - 24.8 °F 80% 30.30 in - Calm Calm - N/A   Clear